Flag for Belgium Weather past 2 weeks in Mons, Belgium

Now
59 °F

Cool.


Feels Like: 59 °F
Forecast: 59 / 72 °F
Wind: 1 mph from North

Location: Chievres

Current Time: Jul 25, 2014 at 5:40:16 AM

Latest Report: Jul 25, 2014 at 4:25 AM


Visibility: N/A

Pressure: 29.95 "Hg

Humidity: 82%

Dew point: 54 °F

Location of MonsLocation

Historic Weather in Mons — Graph

°F

Mons temperature yesterday

Maximum temperature yesterday: 82 °F (at 2:25 PM)
Minimum temperature yesterday: 59 °F (at 6:25 AM)
Average temperature yesterday: 71 °F

Past Weeks' High & Low Weather Summary

 TemperatureHumidityPressure
High91 °F (Jul 18, 3:25 PM)100% (Jul 10, 4:25 AM)30.18 "Hg (Jul 10, 4:25 AM)
Low52 °F (Jul 15, 12:25 AM)30% (Jul 24, 6:25 PM)29.74 "Hg (Jul 13, 5:25 PM)
Average67 °F79%29.99 "Hg
* Reported Jul 10 4:25 AM — Jul 25 4:25 AM, Mons, Weather by CustomWeather, © 2014

Note: Actual official high and low records may vary slightly from our data, if they occured in-between our weather recording intervals... More about our weather records

Advertising

Mons weather history for previous 24 hours

 ConditionsComfort  
Time TempWeatherWind HumidityBarometerVisibility
4:25 AM
Jul 25
59 °FCool.1 mph82%29.95 "HgN/A
3:25 AM57 °FCool.6 mph94%29.95 "HgN/A
2:25 AM59 °FCool.3 mph88%29.98 "HgN/A
1:25 AM63 °FMild.3 mph77%29.98 "HgN/A
12:25 AM63 °FMild.5 mph83%29.95 "HgN/A
11:25 PM
Jul 24
66 °FPassing clouds.7 mph78%29.95 "HgN/A
10:25 PM68 °FPassing clouds.6 mph73%29.95 "HgN/A
9:25 PM72 °FMild.7 mph61%29.95 "HgN/A
8:25 PM75 °FMild.9 mph50%29.92 "HgN/A
7:25 PM79 °FPassing clouds.12 mph39%29.92 "HgN/A
6:25 PM82 °FPleasantly warm.13 mph30%29.92 "HgN/A
5:25 PM81 °FPleasantly warm.9 mph32%29.95 "HgN/A
4:25 PM82 °FPleasantly warm.7 mph35%29.95 "HgN/A
3:25 PM81 °FPassing clouds.10 mph42%29.95 "HgN/A
2:25 PM82 °FPassing clouds.8 mph42%29.98 "HgN/A
1:25 PM77 °FPassing clouds.13 mph54%29.98 "HgN/A
12:25 PM79 °FPassing clouds.12 mph51%29.98 "HgN/A
11:25 AM79 °FWarm.8 mph51%29.98 "HgN/A
10:25 AM75 °FMild.6 mph61%29.98 "HgN/A
9:25 AM72 °FMild.7 mph65%29.98 "HgN/A
8:25 AM68 °FMild.3 mph73%29.98 "HgN/A
7:25 AM63 °FMild.5 mph88%29.98 "HgN/A
6:25 AM59 °FCool.3 mph94%29.98 "HgN/A
5:25 AM61 °FCool.3 mph88%29.98 "HgN/A
Weather by CustomWeather, © 2014

See weather overviewHow to use our weather pages